[[{"header":{"parameterUnit":"m.s-1","parameterCategory":1,"la1":30.2991,"la2":30.254,"lo1":-89.0895,"lo2":-89.0444,"dy":0.0017,"dx":0.0017,"nx":28,"ny":28,"refTime":"2024-02-21T09:00:00:Z","depth":0,"parameterNumber":2,"parameterNumberName":"U-component_of_WINDS"},"data":[0,0,0,0,0,0,0,0,0,0,0,0,0,0,0,0,0,0,0,0,0,0,0,0,0,0,0,0,0,0,0,0,0,0,0,0,0,0,0,0,0,0,0,0,0,0,0,0,0,0,0,0,0,0,0,0,0,0,0.5668,0.5667,0,0.5629,0.5628,0.5628,0.5589,0.5588,0.5588,0.5587,0.555,0.5549,0.5549,0,0,0,0,0,0,0,0,0,0,0,0,0,0.5712,0.5711,0.5668,0.5667,0.5667,0.5629,0.5628,0.5628,0.5589,0.5588,0.5588,0.5587,0.555,0.5549,0.5549,0,0,0,0,0,0,0,0,0,0,0,0,0,0.5685,0.5711,0.5668,0.5643,0.564,0.5629,0.5628,0.5627,0.5589,0.5588,0.5588,0.5587,0.555,0.5549,0.5549,0.556,0,0,0.5546,0.5546,0,0,0,0,0,0,0,0,0.5686,0.5683,0.5647,0.5644,0.5641,0.5613,0.563,0.5605,0.5589,0.5609,0.5587,0.5586,0.5572,0.5569,0.5563,0.5558,0.5556,0.5546,0.5546,0.5545,0.5545,0,0,0,0,0,0,0,0.5688,0.5685,0.5652,0.5646,0.5643,0.5634,0.563,0.5625,0.5595,0.5607,0.5604,0.56,0.557,0.5564,0.5562,0.5556,0.5546,0.5546,0.5545,0.5545,0.5558,0.5559,0,0,0,0,0,0,0.5693,0.5686,0.5653,0.5651,0.5662,0.5634,0.5629,0.5623,0.5595,0.559,0.56,0.5598,0.5566,0.5563,0.5561,0.5573,0.5545,0.5545,0.5544,0.5558,0.5559,0.556,0,0,0,0,0,0,0.5695,0.5691,0.5655,0.5668,0.5663,0.5634,0.5628,0.5622,0.5617,0.559,0.5585,0.56,0.5565,0.5562,0.556,0.5571,0.5544,0.5544,0.5557,0.5558,0.5559,0.5596,0,0,0,0,0,0,0.5696,0.5691,0.5694,0.5668,0.5662,0.5654,0.5628,0.5622,0.5615,0.5612,0.5588,0.5584,0.5564,0.5562,0.556,0.5569,0.5543,0.5556,0.5557,0.5559,0.5594,0.5598,0.5602,0,0,0,0,0,0.5698,0.5707,0.5695,0.5691,0.5665,0.5655,0.5652,0.5629,0.5616,0.562,0.5603,0.5584,0.557,0.5562,0.5559,0.5569,0.5555,0.5557,0.5559,0.5592,0.5597,0.5602,0,0,0,0,0,0,0.5735,0.5703,0.5689,0.569,0.5675,0.5648,0.5652,0.5635,0.5625,0.5622,0.5595,0.559,0.5592,0.558,0.5571,0.5579,0.556,0.5561,0.5586,0.5591,0.5595,0.5598,0.5542,0,0,0,0,0,0.5744,0.5737,0.5709,0.5713,0.5706,0.568,0.5675,0.5659,0.5643,0.5637,0.562,0.5606,0.5598,0.5594,0.5586,0.5592,0.5587,0.5597,0.5601,0.5605,0.5607,0.561,0.5615,0.5566,0.5566,0.5566,0,0,0.5761,0.5742,0.574,0.572,0.5707,0.5702,0.5675,0.5671,0.5667,0.5636,0.5634,0.5621,0.5604,0.5607,0.5607,0.5597,0.5619,0.5607,0.561,0.561,0.5613,0.5618,0.5622,0.5567,0.5567,0.5566,0,0,0.579,0.5774,0.5776,0.5764,0.5744,0.5727,0.5728,0.5703,0.5694,0.569,0.5667,0.5663,0.565,0.564,0.5632,0.5659,0.5642,0.5657,0.5679,0.5683,0.5687,0.5691,0.5701,0.5705,0.5659,0.5659,0.5659,0,0.5814,0.5804,0.5779,0.5776,0.5769,0.574,0.5742,0.5732,0.5711,0.5707,0.5696,0.568,0.5666,0.5667,0.5673,0.5668,0.5669,0.5659,0.5688,0.5692,0.5694,0.5704,0.5708,0.5661,0.566,0.566,0.566,0,0.5836,0.583,0.5833,0.5814,0.5806,0.5806,0.5782,0.5778,0.5763,0.5747,0.5746,0.5728,0.5716,0.5715,0.57,0.5714,0.5708,0.5693,0.5674,0.5702,0.571,0.5714,0.5663,0.5663,0.5662,0.5662,0,0,0.5887,0.5853,0.5855,0.5846,0.5823,0.5819,0.5818,0.5806,0.5804,0.579,0.579,0.578,0.5766,0.5758,0.5742,0.5745,0.5769,0.573,0.5729,0.5739,0.5784,0.5796,0.5801,0.5757,0.5758,0.5758,0.5786,0,0.5912,0.5908,0.5886,0.5888,0.5884,0.5857,0.5856,0.5843,0.5829,0.5824,0.5808,0.5802,0.5784,0.5779,0.5781,0.5766,0.5778,0.5763,0.5758,0.5758,0.5763,0.5805,0.5817,0.5844,0.5789,0.579,0.579,0,0.5941,0.593,0.5932,0.591,0.5907,0.5907,0.5895,0.5889,0.5874,0.5864,0.5856,0.5837,0.5836,0.5818,0.5817,0.5807,0.5804,0.5796,0.5797,0.5796,0.5776,0.5806,0.5852,0.5857,0.5795,0.5795,0.5794,0,0.5979,0.5964,0.5964,0.5957,0.5932,0.5932,0.5922,0.5906,0.59,0.589,0.5886,0.5876,0.5871,0.5864,0.5844,0.5833,0.5846,0.5826,0.5838,0.5839,0.5842,0.5843,0.5889,0.5839,0.5839,0.5839,0.5839,0,0.601,0.6013,0.5981,0.5981,0.5984,0.5959,0.5963,0.595,0.5936,0.5934,0.591,0.5909,0.5882,0.5878,0.5863,0.5865,0.5862,0.5855,0.5851,0.5857,0.5858,0.5855,0.5853,0.584,0.584,0.584,0.584,0,0.6053,0.6032,0.603,0.6006,0.6,0.6003,0.5983,0.5983,0.5968,0.5965,0.5963,0.594,0.5934,0.5914,0.5903,0.5892,0.59,0.5891,0.5905,0.5902,0.5916,0.5916,0.5963,0.5969,0.5915,0.5915,0.5916,0,0.6075,0.6076,0.6052,0.6049,0.604,0.6034,0.6029,0.6005,0.6,0.5984,0.5986,0.5978,0.5971,0.5963,0.5946,0.5938,0.5929,0.5946,0.5928,0.5935,0.5931,0.5931,0.5932,0.5951,0.5951,0.5952,0.5952,0,0.6115,0.6105,0.6097,0.6087,0.6081,0.6071,0.606,0.6059,0.6033,0.6029,0.6023,0.6017,0.6006,0.5999,0.5989,0.5979,0.5962,0.5958,0.5961,0.5968,0.5976,0.5973,0.5917,0.5957,0.5957,0.5957,0.5956,0.5956,0.6149,0.6149,0.6133,0.6126,0.6115,0.6106,0.6105,0.609,0.6084,0.6073,0.6059,0.6055,0.6041,0.6025,0.6017,0.6014,0.6004,0.6008,0.6009,0.601,0.6014,0.5976,0.6012,0.6011,0.6011,0.6011,0.6011,0,0.6189,0.6177,0.6171,0.6157,0.6151,0.6135,0.6123,0.612,0.6116,0.6104,0.6098,0.6091,0.6085,0.6067,0.6059,0.6061,0.6053,0.6059,0.6059,0.6058,0.6022,0.6021,0.6066,0.6066,0.6066,0.6066,0.6066,0.6066,0.6209,0.621,0.6198,0.6193,0.6182,0.6177,0.6171,0.6163,0.6154,0.6148,0.6142,0.613,0.6117,0.6108,0.6102,0.6097,0.6095,0.6105,0.6098,0.6065,0.606,0.6055,0.6054,0.6105,0.6105,0.6133,0.6134,0.6134]},{"header":{"parameterUnit":"m.s-1","parameterCategory":1,"la1":30.2991,"la2":30.254,"lo1":-89.0895,"lo2":-89.0444,"dy":0.0017,"dx":0.0017,"nx":28,"ny":28,"refTime":"2024-02-21T09:00:00:Z","depth":0,"parameterNumber":3,"parameterNumberName":"V-component_of_WINDS"},"data":[0,0,0,0,0,0,0,0,0,0,0,0,0,0,0,0,0,0,0,0,0,0,0,0,0,0,0,0,0,0,0,0,0,0,0,0,0,0,0,0,0,0,0,0,0,0,0,0,0,0,0,0,0,0,0,0,0,0,6.0378,6.038,0,6.0508,6.0509,6.0511,6.0525,6.0524,6.0523,6.0521,6.065,6.0654,6.0659,0,0,0,0,0,0,0,0,0,0,0,0,0,6.0144,6.0148,6.0378,6.038,6.0382,6.0508,6.0509,6.0511,6.0525,6.0524,6.0522,6.0521,6.0648,6.0654,6.0659,0,0,0,0,0,0,0,0,0,0,0,0,0,6.0257,6.0149,6.0378,6.0404,6.0408,6.0507,6.0509,6.0512,6.0526,6.0524,6.0522,6.052,6.0647,6.0653,6.066,6.0742,0,0,6.0681,6.0684,0,0,0,0,0,0,0,0,6.025,6.0265,6.0399,6.0402,6.0407,6.0498,6.0474,6.0589,6.0526,6.0481,6.0521,6.0519,6.0601,6.0611,6.064,6.0748,6.0753,6.0682,6.0686,6.0689,6.0691,0,0,0,0,0,0,0,6.0242,6.026,6.0429,6.04,6.0405,6.0409,6.0423,6.0496,6.055,6.0485,6.0486,6.0501,6.0603,6.0633,6.0643,6.0755,6.0682,6.0688,6.0692,6.0695,6.0942,6.0944,0,0,0,0,0,0,6.023,6.0253,6.0425,6.0433,6.0322,6.0415,6.0431,6.0471,6.0549,6.0559,6.0503,6.0501,6.0622,6.0635,6.0647,6.0752,6.0689,6.0696,6.07,6.094,6.0943,6.0945,0,0,0,0,0,0,6.0225,6.0245,6.042,6.0344,6.0366,6.0421,6.0466,6.0474,6.0505,6.0563,6.0573,6.0524,6.0621,6.0638,6.072,6.0757,6.0699,6.0705,6.0937,6.0941,6.0944,6.0959,0,0,0,0,0,0,6.0218,6.0243,6.0274,6.0344,6.037,6.049,6.0468,6.0478,6.0517,6.0517,6.0585,6.0595,6.0621,6.0709,6.0727,6.0765,6.0711,6.0934,6.0939,6.0943,6.0956,6.0963,6.0969,0,0,0,0,0,6.021,6.0272,6.0276,6.0297,6.0411,6.0492,6.0507,6.0537,6.052,6.0553,6.0591,6.0593,6.075,6.0718,6.0737,6.0778,6.0932,6.0937,6.0942,6.0953,6.0962,6.0969,0,0,0,0,0,0,6.0202,6.0281,6.0287,6.0373,6.0426,6.0494,6.0536,6.0544,6.0602,6.0599,6.0632,6.0648,6.073,6.0762,6.0725,6.0864,6.0839,6.0849,6.084,6.0849,6.0856,6.0847,6.0716,0,0,0,0,0,6.0211,6.0271,6.0336,6.0406,6.0433,6.048,6.0517,6.0536,6.0591,6.0613,6.0657,6.071,6.0773,6.0812,6.0872,6.096,6.0978,6.0999,6.1005,6.1011,6.1019,6.1073,6.1084,6.0963,6.0963,6.0963,0,0,6.0228,6.0279,6.0315,6.0406,6.045,6.0512,6.0499,6.0564,6.0611,6.0623,6.0705,6.0739,6.0801,6.0888,6.0928,6.0917,6.1057,6.1018,6.1021,6.1027,6.108,6.1091,6.1101,6.0967,6.0966,6.0965,0,0,6.0294,6.0337,6.0403,6.0448,6.0515,6.0546,6.0562,6.0631,6.0655,6.0738,6.0749,6.0805,6.091,6.0956,6.0992,6.108,6.1086,6.1098,6.1134,6.1186,6.1196,6.1205,6.124,6.1251,6.1106,6.1106,6.1106,0,6.0307,6.0402,6.0435,6.0502,6.0543,6.056,6.0628,6.0669,6.0751,6.078,6.0766,6.0902,6.0944,6.1045,6.1067,6.1095,6.1116,6.1091,6.1192,6.1201,6.121,6.1244,6.1256,6.1108,6.1108,6.1107,6.1107,0,6.0418,6.0484,6.0529,6.0612,6.0658,6.0725,6.0768,6.0811,6.0827,6.0861,6.0947,6.0999,6.1072,6.1097,6.1111,6.1201,6.1193,6.1185,6.1161,6.1222,6.1255,6.1268,6.111,6.1109,6.1109,6.1108,0,0,6.048,6.0584,6.06,6.064,6.0717,6.0769,6.0838,6.0912,6.095,6.1006,6.1067,6.1157,6.1153,6.1195,6.1215,6.126,6.1332,6.1248,6.125,6.1265,6.1439,6.1446,6.146,6.1336,6.1338,6.134,6.1435,0,6.0557,6.0682,6.0715,6.0821,6.0885,6.0903,6.0964,6.1018,6.1052,6.1112,6.1148,6.1214,6.1201,6.1227,6.1273,6.1314,6.1368,6.1307,6.1394,6.1397,6.138,6.1476,6.1483,6.1569,6.1447,6.1449,6.1451,0,6.0662,6.0726,6.0839,6.0914,6.0941,6.0995,6.1068,6.1124,6.1187,6.1209,6.1258,6.1275,6.135,6.1321,6.1425,6.1383,6.1421,6.1447,6.1451,6.1462,6.1429,6.1493,6.1597,6.1611,6.147,6.1469,6.1468,0,6.0701,6.0814,6.0898,6.0931,6.1019,6.1057,6.1095,6.1157,6.1201,6.1264,6.1293,6.1363,6.1402,6.1457,6.1493,6.1468,6.1596,6.1569,6.1618,6.1617,6.1644,6.1643,6.1759,6.1664,6.1664,6.1664,6.1663,0,6.0785,6.0854,6.0918,6.0969,6.1049,6.1087,6.1165,6.1203,6.1259,6.132,6.1338,6.1394,6.1438,6.1501,6.1529,6.1614,6.163,6.1651,6.1658,6.1651,6.1649,6.1677,6.1673,6.1667,6.1666,6.1666,6.1665,0,6.0842,6.0886,6.098,6.1057,6.1078,6.1134,6.1199,6.1251,6.1287,6.1364,6.1384,6.144,6.1516,6.1557,6.165,6.167,6.1765,6.1767,6.1745,6.1748,6.1796,6.1792,6.1937,6.196,6.1847,6.1848,6.1849,0,6.0893,6.0948,6.1032,6.1075,6.1115,6.1183,6.123,6.127,6.1317,6.1397,6.144,6.1517,6.158,6.17,6.1749,6.1822,6.1828,6.1874,6.1839,6.1832,6.1833,6.1831,6.1838,6.188,6.1881,6.1882,6.1883,0,6.0981,6.1002,6.1069,6.1145,6.1201,6.1262,6.1322,6.1356,6.1407,6.1459,6.1538,6.1588,6.1686,6.1763,6.1841,6.188,6.1892,6.1894,6.191,6.1904,6.189,6.1902,6.1765,6.189,6.189,6.1889,6.1889,6.1888,6.1039,6.1091,6.116,6.1235,6.1286,6.1343,6.1397,6.1442,6.1509,6.1594,6.1613,6.1697,6.1763,6.1869,6.1911,6.1978,6.1969,6.199,6.1997,6.2002,6.2006,6.1878,6.1991,6.1991,6.1991,6.1991,6.1991,0,6.1132,6.1178,6.1247,6.1333,6.1393,6.14,6.1469,6.1518,6.1593,6.1654,6.1718,6.1811,6.1887,6.1944,6.2022,6.2065,6.2072,6.2084,6.2083,6.2093,6.2007,6.1988,6.2078,6.2078,6.2078,6.2078,6.2078,6.2078,6.1187,6.1276,6.1306,6.1422,6.1467,6.1552,6.1591,6.1645,6.1695,6.1799,6.1863,6.19,6.1961,6.2045,6.2116,6.2131,6.216,6.2172,6.2188,6.2107,6.2098,6.2089,6.2071,6.2177,6.2177,6.2268,6.2269,6.227]}]]